FW0065 Weather Reports


Display with metric or nautical units.
time (UTC)temp
F
wind
direction
speed
MPH
gust
MPH
rain 1hr
in
rain 24hr
in
rain mn
in
humidity
%
barometer
mb
20181215192002 66 69 1.0 3.0 0.00 0.52 0.00 95 1012.6
20181215191002 67 69 0.0 2.0 0.00 0.52 0.00 96 1012.6
20181215190002 67 69 1.0 2.0 0.00 0.52 0.00 96 1012.6
20181215185002 67 69 1.0 2.0 0.00 0.52 0.00 96 1012.4
20181215184002 66 0 0.0 0.0 0.00 0.52 0.00 96 1012.2
20181215183003 66 69 0.0 1.0 0.00 0.52 0.00 96 1012.0
20181215182002 66 69 1.0 2.0 0.00 0.52 0.00 96 1011.8
20181215181003 66 69 1.0 2.0 0.00 0.52 0.00 96 1011.7
20181215180002 66 69 0.0 2.0 0.00 0.52 0.00 96 1011.6
20181215175002 65 69 0.0 2.0 0.00 0.52 0.00 96 1011.5
20181215174002 65 0 0.0 0.0 0.00 0.52 0.00 96 1011.5
20181215173003 65 0 0.0 0.0 0.00 0.52 0.00 96 1011.4
20181215172002 65 0 0.0 0.0 0.00 0.52 0.00 96 1011.4
20181215171002 64 69 0.0 2.0 0.00 0.52 0.00 96 1011.3
20181215170002 65 0 0.0 0.0 0.00 0.52 0.00 96 1011.3
20181215165002 65 69 0.0 2.0 0.00 0.52 0.00 96 1011.3
20181215164002 65 0 0.0 0.0 0.00 0.52 0.00 96 1011.3
20181215163002 65 0 0.0 0.0 0.00 0.52 0.00 96 1011.1
20181215162002 65 0 0.0 0.0 0.00 0.52 0.00 96 1011.1
20181215161003 65 0 0.0 0.0 0.00 0.52 0.00 96 1011.1
20181215160002 65 69 0.0 2.0 0.00 0.52 0.00 95 1011.0
20181215155002 66 69 1.0 2.0 0.00 0.52 0.00 95 1010.8
20181215154002 66 69 0.0 2.0 0.00 0.52 0.00 95 1010.6
20181215153002 66 69 1.0 2.0 0.00 0.52 0.00 95 1010.7
20181215152002 66 0 0.0 0.0 0.00 0.52 0.00 95 1010.8
20181215151002 66 69 1.0 2.0 0.00 0.52 0.00 95 1010.8
20181215150003 66 69 1.0 2.0 0.00 0.52 0.00 95 1011.0
20181215145002 66 69 1.0 2.0 0.00 0.52 0.00 94 1011.0
20181215144002 66 0 0.0 0.0 0.00 0.52 0.00 94 1011.1
20181215143002 67 69 0.0 2.0 0.00 0.52 0.00 94 1011.2
20181215142002 67 66 2.0 4.0 0.00 0.52 0.00 94 1011.4
20181215141002 67 59 1.0 3.0 0.00 0.52 0.00 94 1011.6
20181215140002 67 59 0.0 2.0 0.00 0.52 0.00 94 1011.8
20181215135002 67 59 1.0 3.0 0.00 0.52 0.00 94 1011.7
20181215134003 68 59 1.0 5.0 0.00 0.52 0.00 93 1011.8
20181215133002 68 43 2.0 5.0 0.00 0.52 0.00 93 1011.9
20181215132003 68 49 3.0 6.0 0.00 0.52 0.00 93 1012.0
20181215131003 68 38 3.0 5.0 0.01 0.52 0.00 94 1012.2
20181215130002 68 348 1.0 2.0 0.28 0.52 0.00 94 1012.2
20181215125003 68 348 0.0 2.0 0.39 0.52 0.52 94 1012.2
20181215124002 68 348 1.0 3.0 0.39 0.52 0.52 94 1012.2
20181215123002 68 348 1.0 2.0 0.39 0.52 0.52 93 1012.3
20181215122002 68 344 2.0 8.0 0.39 0.52 0.52 93 1012.3
20181215121002 68 28 6.0 14.0 0.39 0.51 0.51 93 1012.0
20181215120003 69 340 4.0 23.0 0.17 0.24 0.24 91 1012.3
20181215115003 69 345 0.0 1.0 0.13 0.13 0.13 91 1011.8
20181215114002 69 348 1.0 4.0 0.13 0.13 0.13 91 1011.8
20181215113003 69 5 1.0 4.0 0.13 0.13 0.13 90 1011.6
20181215112002 69 53 3.0 10.0 0.13 0.13 0.13 88 1011.1
20181215111003 69 218 2.0 8.0 0.13 0.13 0.13 88 1011.0
20181215110002 72 329 2.0 12.0 0.03 0.03 0.04 80 1011.7
20181215105002 72 24 1.0 2.0 0.00 0.00 0.00 73 1010.7
20181215104002 73 24 1.0 2.0 0.00 0.00 0.00 72 1010.7
20181215103002 73 24 1.0 3.0 0.00 0.00 0.00 72 1010.4
20181215102002 73 25 1.0 2.0 0.00 0.00 0.00 71 1010.3
20181215101003 73 21 2.0 4.0 0.00 0.00 0.00 71 1010.3
20181215100003 74 25 2.0 8.0 0.00 0.00 0.00 69 1010.1
20181215095002 74 10 3.0 8.0 0.00 0.00 0.00 68 1010.1
20181215094002 74 354 3.0 9.0 0.00 0.00 0.00 68 1009.9
20181215093003 74 353 3.0 7.0 0.00 0.00 0.00 67 1009.8
20181215092002 74 336 2.0 5.0 0.00 0.00 0.00 69 1009.6
20181215091003 75 356 2.0 5.0 0.00 0.00 0.00 68 1009.6
20181215090002 75 4 3.0 10.0 0.00 0.00 0.00 67 1009.3
20181215085002 76 27 5.0 16.0 0.00 0.00 0.00 66 1009.2
20181215084002 77 6 7.0 16.0 0.00 0.00 0.00 65 1009.2
20181215083002 79 9 11.0 21.0 0.00 0.00 0.00 61 1008.7
20181215082003 85 356 6.0 24.0 0.00 0.00 0.00 49 1008.2
20181215081002 86 345 6.0 12.0 0.00 0.00 0.00 46 1007.8
20181215080002 86 343 7.0 13.0 0.00 0.00 0.00 44 1007.7
20181215075003 86 341 7.0 15.0 0.00 0.00 0.00 43 1007.5
20181215074002 87 339 5.0 11.0 0.00 0.00 0.00 43 1007.4
20181215073003 87 347 7.0 14.0 0.00 0.00 0.00 41 1007.2
20181215072002 88 351 5.0 12.0 0.00 0.00 0.00 45 1007.0
20181215071002 88 5 6.0 14.0 0.00 0.00 0.00 46 1007.1
20181215070002 87 354 7.0 14.0 0.00 0.00 0.00 47 1007.2
20181215065003 86 341 7.0 15.0 0.00 0.00 0.00 48 1007.3
20181215064002 88 334 8.0 17.0 0.00 0.00 0.00 46 1007.1
20181215063002 88 341 7.0 15.0 0.00 0.00 0.00 47 1007.0
20181215062003 88 354 9.0 20.0 0.00 0.00 0.00 41 1006.9
20181215061003 89 346 9.0 18.0 0.00 0.00 0.00 44 1006.9
20181215060002 90 336 7.0 16.0 0.00 0.00 0.00 41 1007.0
20181215055003 90 337 9.0 18.0 0.00 0.00 0.00 40 1007.0
20181215054003 91 342 9.0 16.0 0.00 0.00 0.00 39 1006.9
20181215053003 91 333 8.0 18.0 0.00 0.00 0.00 39 1007.1
20181215052002 92 346 8.0 18.0 0.00 0.01 0.00 36 1007.2
20181215051003 92 347 8.0 17.0 0.00 0.09 0.00 43 1007.3
20181215050002 90 340 9.0 20.0 0.00 0.17 0.00 46 1007.4
20181215045003 87 360 9.0 20.0 0.00 0.19 0.00 46 1007.6
20181215044002 90 339 10.0 19.0 0.00 0.25 0.00 45 1007.7
20181215043003 89 340 11.0 21.0 0.00 0.25 0.00 46 1007.8
20181215042003 88 348 11.0 23.0 0.00 0.25 0.00 49 1007.9
20181215041002 89 347 11.0 21.0 0.00 0.25 0.00 47 1008.0
20181215040002 88 348 8.0 19.0 0.00 0.25 0.00 49 1008.3
20181215035002 90 347 10.0 20.0 0.00 0.25 0.00 49 1008.4
20181215034003 87 350 9.0 21.0 0.00 0.25 0.00 49 1008.5
20181215033002 89 12 9.0 20.0 0.00 0.25 0.00 48 1008.5
20181215032003 88 1 11.0 24.0 0.00 0.25 0.00 50 1008.5
20181215031003 88 353 11.0 24.0 0.00 0.25 0.00 54 1008.8
20181215030002 86 358 11.0 22.0 0.00 0.25 0.00 55 1008.9
20181215025003 88 14 9.0 18.0 0.00 0.25 0.00 50 1009.0
20181215024002 89 348 10.0 19.0 0.00 0.25 0.00 51 1009.0
20181215023002 87 13 10.0 20.0 0.00 0.25 0.00 52 1009.2
20181215022003 87 11 7.0 15.0 0.00 0.25 0.00 53 1009.2
20181215021002 88 5 8.0 17.0 0.00 0.25 0.00 54 1009.6
20181215020003 87 6 8.0 18.0 0.00 0.25 0.00 54 1009.7
20181215015002 86 4 9.0 20.0 0.00 0.25 0.00 55 1009.8
20181215014003 85 359 10.0 22.0 0.00 0.25 0.00 51 1009.9
20181215013003 85 15 8.0 16.0 0.00 0.25 0.00 55 1010.0
20181215012002 85 7 7.0 19.0 0.00 0.25 0.00 55 1010.1
20181215011003 85 18 7.0 16.0 0.00 0.25 0.00 54 1010.2
20181215010002 85 3 8.0 17.0 0.00 0.25 0.00 55 1010.4
20181215005002 86 360 6.0 15.0 0.00 0.25 0.00 54 1010.5
20181215004003 85 357 7.0 15.0 0.00 0.25 0.00 54 1010.7
20181215003003 84 356 8.0 19.0 0.00 0.25 0.00 61 1010.7
20181215002002 83 31 9.0 17.0 0.00 0.25 0.00 55 1010.8
20181215001003 84 9 9.0 17.0 0.00 0.25 0.00 57 1010.7
20181215000003 84 20 9.0 19.0 0.00 0.25 0.00 54 1010.8
20181214235003 84 21 8.0 18.0 0.00 0.25 0.00 55 1011.0
20181214234003 84 4 8.0 17.0 0.00 0.25 0.00 57 1011.1
20181214233003 83 5 8.0 18.0 0.00 0.25 0.00 56 1011.1
20181214232003 82 11 7.0 18.0 0.00 0.25 0.00 57 1011.1
20181214231003 82 12 9.0 18.0 0.00 0.25 0.00 61 1011.1
20181214230003 82 344 6.0 15.0 0.00 0.25 0.00 58 1011.0
20181214225003 81 11 7.0 18.0 0.00 0.25 0.00 56 1011.1
20181214224003 81 13 7.0 19.0 0.00 0.25 0.00 58 1011.2
20181214223002 81 9 5.0 12.0 0.00 0.25 0.00 59 1011.2
20181214222003 80 15 6.0 13.0 0.00 0.25 0.00 60 1011.1
20181214221003 79 20 6.0 13.0 0.00 0.25 0.00 63 1011.2
20181214220005 79 8 5.0 12.0 0.00 0.25 0.00 63 1011.2
20181214215002 78 36 4.0 8.0 0.00 0.25 0.00 67 1011.1
20181214214003 78 34 3.0 8.0 0.00 0.25 0.00 71 1011.2
20181214213004 76 51 4.0 8.0 0.00 0.25 0.00 68 1011.1
20181214212003 75 50 3.0 9.0 0.00 0.25 0.00 73 1011.1
20181214211003 74 43 3.0 8.0 0.00 0.25 0.00 73 1010.9
20181214210003 73 47 4.0 8.0 0.00 0.25 0.00 76 1010.8
20181214205003 71 85 2.0 5.0 0.00 0.25 0.00 80 1010.7
20181214204003 69 240 0.0 2.0 0.00 0.25 0.00 83 1010.6
20181214203002 68 240 1.0 2.0 0.00 0.25 0.00 85 1010.6
20181214202002 66 240 1.0 2.0 0.00 0.25 0.00 87 1010.5
20181214201003 65 240 1.0 2.0 0.00 0.25 0.00 90 1010.4
20181214200003 64 240 2.0 4.0 0.00 0.25 0.00 93 1010.3
20181214195003 63 240 2.0 3.0 0.00 0.25 0.00 95 1010.1
20181214194003 63 240 1.0 3.0 0.00 0.25 0.00 96 1009.9
20181214193003 62 0 0.0 0.0 0.00 0.25 0.00 96 1009.7